Location: Unspecified
(0.0000°N, 0.0000°E)
Time: 11:12:27
(UTC+00:00)

S-56A Canister/Altair - Pass Details

Date: 28 November 2019
Orbit: 632 x 2500 km, 38.9° (Epoch: 13 December)

Event Time Altitude Azimuth Distance (km) Brightness Sun altitude
Rises 20:56:02 0° 333° (NNW) 3,635 - -42.9°
Reaches altitude 10° 20:59:44 10° 351° (N) 2,413 - -43.7°
Maximum altitude 21:03:23 18° 34° (NE) 1,714 - -44.5°
Drops below altitude 10° 21:06:34 10° 78° (ENE) 2,065 - -45.2°
Sets 21:09:23 0° 99° (E) 2,917 - -45.8°
